Regional Weather Roundup
Issued by NWS

Home | Current Version | Previous Version | Graphics & Text | Print | Product List | Glossary On
Versions: 1 2 3 4 5 6 7 8 9 10 11 12 13 14 15 16 17 18 19 20 21 22 23 24 25 26 27 28 29 30 31 32 33 34 35 36 37 38 39 40 41 42 43 44 45 46 47 48 49 50
000
ASUS43 KMPX 200701
RWRMN
WEATHER ROUNDUP FOR MINNESOTA
NATIONAL WEATHER SERVICE TWIN CITIES/CHANHASSEN MN
100 AM CST MON NOV 20 2017


NOTE: "FAIR" INDICATES FEW OR NO CLOUDS BELOW 12,000 FEET WITH NO
SIGNIFICANT WEATHER AND/OR OBSTRUCTIONS TO VISIBILITY. N/A MEANS
CURRENT SKY AND/OR WEATHER CONDITIONS ARE NOT AVAILABLE.

MNZ060>063-068>070-200800-
   Twin Cities Metro

CITY           SKY/WX    TMP DP  RH WIND       PRES   REMARKS
TWIN CITIES    MOCLDY    35  27  72 S5        29.78F WCI  31
ST PAUL        CLEAR     28  25  88 S7        29.79F WCI  21
CRYSTAL        CLEAR     33  23  66 S6        29.75F WCI  28
BLAINE         CLEAR     34  27  75 S7        29.75F WCI  28
LAKEVILLE      CLEAR     30  27  86 S3        29.79S
EDEN PRAIRIE   CLEAR     34  26  72 S5        29.77S WCI  30
SOUTH ST PAUL  CLEAR     28  25  87 CALM      29.78F
LAKE ELMO      FAIR      28  25  86 S5        29.79F WCI  23
$$
MNZ001>005-007-008-013>017-022>024-027-028-200800-
   Northwest Minnesota

CITY           SKY/WX    TMP DP  RH WIND       PRES   REMARKS
BEMIDJI        CLOUDY    14  10  85 CALM      29.68S
HALLOCK        CLOUDY    21  18  86 SE10      29.62F WCI  10
ROSEAU         CLOUDY    19  16  86 S5        29.65S WCI  13
WARROAD        MOCLDY    18  14  86 CALM      29.66S
CROOKSTON      CLOUDY    21  19  93 S8        29.66F WCI  12
FOSSTON        CLOUDY    21  19  93 S6        29.66F WCI  14
DETROIT LAKES  CLOUDY    27  23  86 S5        29.68F WCI  21
MOORHEAD       CLOUDY    23  19  86 S9        29.68F WCI  13
PARK RAPIDS    CLOUDY    24  19  81 SE7       29.67F WCI  16
MAHNOMEN       FAIR      26  22  85 S7        29.66F WCI  18
$$
MNZ006-009>011-018-025>026-200800-
   North Central Minnesota

CITY           SKY/WX    TMP DP  RH WIND       PRES   REMARKS
BAUDETTE       PTCLDY    15  11  83 SE7       29.65F WCI   5
FLAG ISLAND    CLOUDY    19  16  86 CALM      29.65F
INTL FALLS     CLOUDY    13   9  84 SE5       29.70F WCI   5
WASKISH        CLOUDY    16  14  93 SE3       29.67F
BIG FORK       CLOUDY    10   7  85 CALM      29.70S
LONGVILLE      CLOUDY    16  14  93 CALM      29.70F
GRAND RAPIDS   CLOUDY    15  13  91 CALM      29.72F
CRANE LAKE     CLOUDY     9   7  92 CALM      29.74F
ORR            CLOUDY    14  10  85 CALM      29.68F
COOK           CLEAR      9   7  92 CALM      29.71F
WALKER         FAIR      23  21  90 CALM      29.68F
$$
MNZ012-019>021-037-200800-
   Northeast Minnesota

CITY           SKY/WX    TMP DP  RH WIND       PRES   REMARKS
DULUTH         CLEAR     19  17  92 SE5       29.71F WCI  12
ELY            CLOUDY    10   9  92 CALM      29.71F
HIBBING        CLOUDY     9   7  92 CALM      29.72F
EVELETH        CLOUDY     7   3  85 CALM      29.73F
DULUTH HARBOR  CLEAR     25  19  80 CALM      29.78F
TWO HARBORS    CLEAR     16  10  79 CALM      29.73F
SILVER BAY     CLOUDY    14  12  92 CALM      29.74F
GRAND MARAIS     N/A     22  15  75 N3        29.79F
G MARAIS ARPRT CLOUDY    10   5  79 CALM      29.71F
$$
MNZ029>031-032-039>041-046>048-054>057-064-200800-
   West Central Minnesota

CITY           SKY/WX    TMP DP  RH WIND       PRES   REMARKS
FERGUS FALLS   CLOUDY    27  21  80 S5        29.73F WCI  21
WHEATON        PTCLDY    23  19  86 CALM      29.73S
MORRIS         CLOUDY    27  23  86 S3        29.71F
ALEXANDRIA     CLOUDY    29  23  78 SW6       29.72S WCI  23
ELBOW LAKE     FAIR      26  22  87 SE6       29.72S WCI  19
WADENA         CLOUDY    21  19  93 CALM      29.70R
GLENWOOD       CLOUDY    30  25  80 SW5       29.72S WCI  25
APPLETON       CLOUDY    27  23  86 CALM      29.72F
BENSON         CLOUDY    25  21  86 S6        29.73F WCI  18
ORTONVILLE     CLOUDY    32  21  64 MISG      29.71F
MADISON        CLOUDY    30  23  74 CALM      29.72F
WILLMAR        FAIR      28  25  86 SE3       29.75S
$$
MNZ033>034-036-042>043-049>051-058-059-200800-
   Central Minnesota

CITY           SKY/WX    TMP DP  RH WIND       PRES   REMARKS
ST CLOUD       CLEAR     24  21  88 S3        29.74F
SAUK CENTRE    FAIR      29  24  81 CALM      29.72S
PAYNESVILLE    CLOUDY    26  24  93 CALM      29.73F
AITKIN         CLOUDY    16  14  93 CALM      29.69F
PINE RIVER     CLOUDY    18  16  93 CALM      29.74S
BRAINERD       CLOUDY    22  18  85 CALM      29.71F
STAPLES        CLOUDY    21  21 100 CALM      29.70S
LONG PRAIRIE   FAIR      27  23  86 S5        29.72F WCI  21
LITTLE FALLS   CLOUDY    23  21  93 CALM      29.73F
LITCHFIELD     CLEAR     32  27  80 CALM      29.75F
BUFFALO        CLEAR     29  23  78 CALM      29.77F
MAPLE LAKE     CLEAR     31  26  83 S3        29.75F
HUTCHINSON     CLOUDY    32  26  80 S3        29.76F
$$
MNZ037-044-045-052-053-200800-
   East Central Minnesota

CITY           SKY/WX    TMP DP  RH WIND       PRES   REMARKS
PRINCETON      CLEAR     23  21  93 CALM      29.74F
MORA           CLOUDY    19  18  93 CALM      29.76S
CAMBRIDGE      CLEAR     25  19  80 S3        29.75F
RUSH CITY      CLEAR     29  24  79 S6        29.75F WCI  23
MOOSE LAKE     CLEAR     19  16  86 CALM      29.72F
HINCKLEY       FAIR      19  19 100 CALM      29.75F
CLOQUET        CLEAR     18  12  79 CALM      29.72F
MCGREGOR       CLOUDY    19  18  93 CALM      29.71F
$$
MNZ071>073-080-081-089-090-097-098-200800-
   Southwest Minnesota

CITY           SKY/WX    TMP DP  RH WIND       PRES   REMARKS
MONTEVIDEO     CLEAR     30  23  74 CALM      29.73F
GRANITE FALLS  CLEAR     29  24  81 S8        29.75F WCI  22
CANBY          CLEAR     41  25  53 SW7       29.72F
MARSHALL       CLEAR     38  24  57 S8        29.73F
REDWOOD FALLS  CLEAR     32  23  69 SW8       29.74F WCI  25
OLIVIA         CLEAR     30  25  80 S5        29.74F WCI  25
PIPESTONE      CLOUDY    32  23  69 S6        29.74F WCI  26
WINDOM         PTCLDY    34  18  51 S6        29.76F WCI  29
WORTHINGTON    CLOUDY    34  24  67 SW9       29.76F WCI  27
JACKSON        PTCLDY    34  27  75 SW6       29.77F WCI  29
SLAYTON        CLOUDY    33  25  72 SW12      29.75F WCI  24
$$
MNZ065>067-074>077-082>085-091>093-200800-
   South Central Minnesota

CITY           SKY/WX    TMP DP  RH WIND       PRES   REMARKS
MANKATO        CLOUDY    32  27  81 S7        29.79F WCI  26
NEW ULM        CLOUDY    28  23  80 CALM      29.76F
ST JAMES       CLOUDY    30  27  86 S7        29.78F WCI  23
FAIRMONT       CLOUDY    32  27  81 S7        29.79F WCI  26
GLENCOE        CLEAR     31  27  84 S5        29.76F WCI  27
FARIBAULT      CLOUDY    32  27  80 S5        29.80S WCI  27
OWATONNA       CLOUDY    36  28  75 S10       29.80F
WASECA         CLOUDY    32  28  86 S7        29.81F WCI  26
ALBERT LEA     CLOUDY    36  27  69 S5        29.81F
$$
MNZ078>079-086>088-094>096-200800-
   Southeast Minnesota

CITY           SKY/WX    TMP DP  RH WIND       PRES   REMARKS
ROCHESTER      CLOUDY    31  26  82 S15       29.81F WCI  20
RED WING       CLEAR     30  23  74 CALM      29.80S
STANTON        CLEAR     33  27  79 S3        29.79S
DODGE CENTER   CLOUDY    34  27  75 S13       29.80F WCI  25
WINONA         CLEAR     36  27  69 SW5       29.84F
PRESTON        CLOUDY    32  25  76 SW14      29.84S WCI  22
$$
ABBREVIATIONS USED IN REMARKS
   TC - TEMPERATURES IN CELSIUS
  WCI - WIND CHILL INDEX
   HX - HEAT INDEX
  VSB - VISIBILITY
$$




USA.gov is the U.S. government's official web portal to all federal, state and local government web resources and services.